550  
NZUS93 KARX 011310  
HRRWXR  
 
CURRENT HOURLY OBSERVATIONS ACROSS  
MUCH OF THE UPPER MISSISSIPPI VALLEY  
NATIONAL WEATHER SERVICE LA CROSSE WI  
700 AM CST SUN FEB 01 2015  
 
   
..SOUTHEAST MINNESOTA
 
 
 
CITY SKY/WX TMP DP RH WIND PRES REMARKS  
ROCHESTER LGT SNOW 16 12 84 NE18 30.06R FOG WCI 0  
ROCHESTER/MAYO CLOUDY 16 11 82 NE15G22 30.08R WCI 1  
WINONA LGT SNOW 19 14 79 E6 30.16R WCI 11  
AUSTIN LGT SNOW 18 14 86 NE17G25 30.02R WCI 2  
ALBERT LEA LGT SNOW 18 16 93 NE20G28 30.03R VSB 1 WCI 1  
DODGE CENTER LGT SNOW 16 12 86 NE16 30.06R WCI 0  
PRESTON N/A 15 12 88 NE18G25 30.05R WCI -1  
OWATONNA LGT SNOW 16 10 79 NE17G23 30.10R WCI 0  
FARIBAULT LGT SNOW 14 10 85 N14G24 30.14R WCI -1  

 
   
..ELSEWHERE IN MINNESOTA
 
 
 
CITY SKY/WX TMP DP RH WIND PRES REMARKS  
MINNEAPOLIS FLURRIES 15 6 67 NE15 30.20R WCI 0  
INTNL FALLS PTCLDY -18 -24 74 N6 30.46F HAZE WCI -33  
DULUTH MOCLDY -2 -9 72 N9 30.30R WCI -18  
RED WING LGT SNOW 14 9 79 E12 30.17R WCI 0  
REDWOOD FALLS LGT SNOW 13 8 81 N10G21 30.20R WCI 0  
MANKATO CLOUDY 16 10 79 NE21 30.12R WCI -2  
WORTHINGTON CLOUDY 27 9 46 N20G32 30.07R WCI 13  
FAIRMONT CLOUDY 16 10 79 N18G28 30.05R WCI -1  

 
   
..SOUTHWEST WISCONSIN
 
 
 
CITY SKY/WX TMP DP RH WIND PRES REMARKS  
LA CROSSE LGT SNOW 17 10 74 NE17G24 30.14R WCI 1  
PRAIRIE DU CHI MIX PCPN 19 13 77 NE9G18 30.04R WCI 8  
BOSCOBEL LGT SNOW 17 12 80 NE14G24 30.06R WCI 3  
LONE ROCK LGT SNOW 17 11 77 NE14G21 30.06F WCI 3  
PLATTEVILLE CLOUDY 19 16 88 NE25G33 29.95R WCI 1  
FORT MC COY LGT SNOW 13 9 83 NE12 30.13S WCI 0  
CAMP DOUGLAS LGT SNOW 12 12 100 NE8G16 30.12F FOG WCI 1  
VIROQUA CLOUDY 13 10 89 NE17G23 30.03F WCI -4  
WIS DELLS LGT SNOW 13 9 85 NE16G25 30.08F VSB 3/4 WCI -4  

 
   
..ELSEWHERE IN WISCONSIN
 
 
 
CITY SKY/WX TMP DP RH WIND PRES REMARKS  
MILWAUKEE LGT SNOW 24 20 84 NE24G32 30.07F VSB 3/4 WCI 8  
MADISON LGT SNOW 15 11 83 NE21G28 30.05F VSB 3/4 WCI -2  
GREEN BAY MIX PCPN 13 7 77 NE30G38 30.22F WCI -8  
EAU CLAIRE LGT SNOW 12 3 67 E17G25 30.19R WCI -5  
BLACK RVR FLS LGT SNOW 13 8 81 NE14 30.16S WCI -2  
MEDFORD CLOUDY 8 1 73 NE15G22 30.16F WCI -10  
WAUSAU CLOUDY 10 2 69 E13G18 30.17F WCI -5  
WIS RAPIDS LGT SNOW 11 6 81 NE13 30.16F WCI -4  
MARSHFIELD LGT SNOW 11 6 81 NE14 30.15S WCI -5  
RICE LAKE CLOUDY 10 1 68 NE12 30.24R WCI -5  

 
   
..NORTHEAST IOWA
 
 
 
CITY SKY/WX TMP DP RH WIND PRES REMARKS  
DECORAH LGT SNOW 18 14 86 NE15G26 30.00R WCI 3  
MASON CITY LGT SNOW 20 17 88 NE25 29.97S FOG WCI 2  
CHARLES CITY LGT SNOW 19 18 93 NE25G32 29.96R WCI 2  
OELWEIN LGT SNOW 21 18 86 E30G38 29.92R WCI 3  

 
   
..ELSEWHERE IN IOWA
 
 
 
CITY SKY/WX TMP DP RH WIND PRES REMARKS  
DES MOINES LGT SNOW 33 31 92 NE9 29.79F VSB 1 WCI 25  
IOWA CITY LGT SNOW 32 31 96 NE13 29.85F VSB 3/4 WCI 22  
FORT DODGE CLOUDY 21 18 86 CALM 29.91R  

 
   
..NORTHERN ILLINOIS
 
 
 
CITY SKY/WX TMP DP RH WIND PRES REMARKS  
CHICAGO-OHARE SNOW 30 29 96 NE16 29.95F VSB 1/2 WCI 19  
CHICAGO-MIDWAY LGT SNOW 33 31 92 NE13 29.95F VSB 3/4 WCI 24  
MOLINE LGT SNOW 32 31 96 E12 29.85S VSB 1 WCI 23  
ROCKFORD LGT SNOW 27 24 89 NE18G28 29.96F VSB 1 WCI 14  
PEORIA SNOW 34 32 92 E9 29.83F VSB 1/2 WCI 27  

 
 
NOTE: "FAIR" INDICATES FEW OR NO CLOUDS BELOW 12,000 FEET WITH NO  
SIGNIFICANT WEATHER AND/OR OBSTRUCTIONS TO VISIBILITY. WIND  
SPEEDS ARE IN MILES-PER-HOUR.  
 
CLICK HERE TO GO TO PREVIOUS BULLETINS.

The Nexlab WI Page
The Nexlab IA Page
The Nexlab MN Page Main Text Page